Location: Buch am Rannenberg
(48.6989°N, 10.6399°E)
Time: 17:16:33
(UTC+00:00)

USA 215 - Pass Details

Date: 07 June 2020
Orbit: 1098 x 1110 km, 123.0° (Epoch: 06 July)

Event Time Altitude Azimuth Distance (km) Brightness Sun altitude
Exits shadow 00:28:06 12° 154° (SSE) 2,785 5.0 -16.7°
Maximum altitude 00:33:52 47° 225° (SW) 1,429 3.5 -16.4°
Drops below altitude 10° 00:40:10 10° 298° (WNW) 2,970 5.6 -16.1°
Sets 00:42:46 0° 304° (NW) 3,929 6.3 -16.0°
